Weather History for Billings, MT

Change the Weather History Date:

Tuesday, January 15, 2013

  Actual Average Record
Temperature  
Mean Temperature 26 °F 27 °F  
Max Temperature 34 °F 36 °F 59 °F (1974)
Min Temperature 17 °F 18 °F -18 °F (1950)
Degree Days  
Heating Degree Days 39 38  
Month to date heating degree days 583 577  
Since 1 July heating degree days 3124 3398  
Cooling Degree Days 0 0  
Month to date cooling degree days 0 0  
Year to date cooling degree days 0 0  
Moisture  
Dew Point 13 °F    
Average Humidity 71    
Maximum Humidity 80    
Minimum Humidity 61    
Precipitation  
Precipitation T in 0.01 in 0.44 in (1954)
Month to date precipitation 0.39 0.23  
Year to date precipitation 0.39 0.23  
Snow  
Snow T in 0.30 in 6.20 in (1954)
Month to date snowfall 7.4 4.3  
Since 1 July snowfall 23.7 24.2  
Snow Depth 4.00 in    
Sea Level Pressure  
Sea Level Pressure 30.17 in    
Wind  
Wind Speed 25 mph (WSW)    
Max Wind Speed 33 mph    
Max Gust Speed 41 mph    
Visibility 10 miles    
Events Snow    
T = Trace of Precipitation, MM = Missing Value Source: NWS Daily Summary

Daily Weather History Graph

Daily Weather History Graph

Search for Another Location

Airport:

Trip Planner

Search our weather history database for the weather conditions in past years. The results will help you decide how hot, cold, wet, or windy it might be!

Date:

Astronomy

Jan. 15, 2013 Rise Set
Actual Time 7:51 AM MST 4:56 PM MST
Civil Twilight 7:17 AM MST 5:29 PM MST
Nautical Twilight 6:41 AM MST 6:06 PM MST
Astronomical Twilight 6:05 AM MST 6:42 PM MST
Moon 9:42 AM MST (1/15) 10:07 PM MST (1/15)
Length of Visible Light 10h 11m
Length of Day
9h 05m
Waxing Crescent, 20% of the Moon is Illuminated
Jan 15
Waxing Crescent
Jan 18
First Quarter
Jan 26
Full
Feb 3
Last Quarter
Feb 10
New

Hourly Weather History & Observations

Time (MST) Temp. Windchill Dew Point Humidity Pressure Visibility Wind Dir Wind Speed Gust Speed Precip Events Conditions
12:53 AM 17.1 °F -2.0 °F 7.0 °F 65% 30.13 in 9.0 mi WSW 27.6 mph 34.5 mph 0.00 in Snow Light Snow
1:53 AM 18.0 °F -0.5 °F 8.1 °F 65% 30.12 in 10.0 mi WSW 26.5 mph 32.2 mph 0.00 in   Overcast
2:53 AM 18.0 °F -0.5 °F 10.0 °F 71% 30.14 in 10.0 mi WSW 26.5 mph 34.5 mph N/A   Overcast
3:53 AM 17.6 °F -1.3 °F 10.4 °F 73% 29.98 in 10.0 mi SW 27.6 mph 35.7 mph N/A   Overcast
4:53 AM 18.0 °F -1.7 °F 10.9 °F 74% 30.13 in 10.0 mi SW 31.1 mph 39.1 mph 0.00 in   Overcast
5:53 AM 17.1 °F -2.0 °F 12.0 °F 81% 30.15 in 9.0 mi WSW 27.6 mph 35.7 mph 0.00 in Snow Light Snow
6:53 AM 17.1 °F -1.7 °F 10.9 °F 77% 30.15 in 10.0 mi WSW 26.5 mph 36.8 mph 0.00 in Snow Light Snow
7:53 AM 17.1 °F -2.7 °F 10.0 °F 74% 30.17 in 10.0 mi WSW 29.9 mph 36.8 mph 0.00 in   Mostly Cloudy
8:53 AM 18.0 °F -1.4 °F 12.0 °F 78% 30.17 in 10.0 mi WSW 29.9 mph 38.0 mph N/A   Overcast
9:53 AM 19.9 °F 1.5 °F 12.0 °F 71% 30.17 in 10.0 mi WSW 28.8 mph 38.0 mph N/A   Mostly Cloudy
10:53 AM 21.9 °F 5.5 °F 12.9 °F 68% 30.17 in 10.0 mi WSW 24.2 mph 34.5 mph N/A   Overcast
11:53 AM 23.0 °F 7.2 °F 15.1 °F 72% 30.19 in 10.0 mi WSW 23.0 mph 32.2 mph N/A   Overcast
12:53 PM 25.0 °F 9.2 °F 16.0 °F 69% 30.17 in 10.0 mi WSW 25.3 mph - N/A   Overcast
1:53 PM 26.1 °F 10.4 °F 16.0 °F 66% 30.14 in 10.0 mi WSW 26.5 mph 35.7 mph N/A   Overcast
2:53 PM 26.1 °F 12.0 °F 16.0 °F 66% 30.19 in 10.0 mi SW 20.7 mph 33.4 mph N/A   Overcast
3:53 PM 26.1 °F 11.6 °F 16.0 °F 66% 30.20 in 10.0 mi WSW 21.9 mph - N/A   Overcast
4:53 PM 26.1 °F 12.0 °F 16.0 °F 66% 30.21 in 10.0 mi SW 20.7 mph - N/A   Overcast
5:53 PM 25.0 °F 9.2 °F 15.1 °F 66% 30.22 in 10.0 mi WSW 25.3 mph - N/A   Overcast
6:53 PM 25.0 °F 9.9 °F 15.1 °F 66% 30.23 in 10.0 mi SW 23.0 mph - N/A   Overcast
7:53 PM 25.0 °F 9.9 °F 15.1 °F 66% 30.22 in 10.0 mi SW 23.0 mph - N/A   Mostly Cloudy
8:53 PM 27.0 °F 13.5 °F 17.1 °F 66% 30.21 in 10.0 mi WSW 19.6 mph - N/A   Mostly Cloudy
9:53 PM 27.0 °F 13.9 °F 16.0 °F 63% 30.20 in 10.0 mi WSW 18.4 mph 28.8 mph N/A   Partly Cloudy
10:53 PM 27.0 °F 12.5 °F 16.0 °F 63% 30.21 in 10.0 mi WSW 23.0 mph - N/A   Partly Cloudy
11:53 PM 24.1 °F 7.7 °F 15.1 °F 69% 30.19 in 10.0 mi WSW 26.5 mph - N/A   Clear